GSAT0214 (GALILEO 18)

Last updated on Thu Nov 21 2024 00:02:30 GMT+0000 (Coordinated Universal Time)

1 41862U 16069D 24324.84825394 .00000037 00000+0 00000+0 0 9999 2 41862 55.1643 116.9963 0000903 262.7119 97.2513 1.70474645 49853
UTC large
Height (km)
Speed (km/s)
/
Latitude / Longitude
Inclination (degrees)
Orbital Period (minutes)
Azimuth
Elevation
Range (km)
Doppler Factor

Next 0 passes for location: London (51.5072 / 0.1276)

Sorry there are no passes over London.